Theta_e
289 289 289 289 289 290 291 292 293 293 295 296 297 300 301 304 309 315 318 320 326 326 324 324 324 324 324 326 326 326 325 325 325 322 319 316 307 304
287 287 288 288 289 289 290 291 291 293 293 294 294 296 298 301 304 309 315 317 324 323 323 324 324 324 325 325 323 327 326 325 325 325 323 321 318 309
286 287 287 287 287 288 289 289 290 291 292 293 293 294 297 298 303 305 309 317 321 321 323 325 325 325 324 325 325 325 325 326 325 324 325 324 322 319
285 286 286 286 286 287 288 288 288 289 289 290 291 292 295 295 299 305 307 316 323 327 327 326 326 326 325 326 325 324 323 324 326 325 324 324 324 323
284 285 285 285 285 286 286 286 286 287 288 288 289 290 292 293 296 304 307 313 320 321 327 325 325 323 324 326 326 325 323 323 324 326 325 323 324 324
284 284 284 284 284 285 285 285 285 285 286 286 288 289 291 292 295 302 307 312 316 323 325 324 324 323 323 324 325 327 325 325 324 324 325 325 324 325
284 284 283 283 283 283 283 283 283 283 284 285 286 288 289 290 294 301 309 310 315 324 325 324 326 324 323 324 324 323 323 325 325 325 324 324 325 324
284 283 283 282 282 281 281 280 281 282 283 284 285 286 287 288 291 293 304 313 315 321 323 324 325 323 323 323 323 325 323 324 323 323 323 323 324 325
283 282 282 282 281 280 279 280 281 282 283 283 283 284 286 287 288 290 299 310 315 322 323 324 324 324 322 324 324 323 323 324 325 324 323 323 325 324
281 282 282 281 280 278 279 280 280 281 282 283 283 284 285 287 288 289 296 307 312 316 323 322 323 322 324 323 322 323 324 324 323 323 324 324 324 324
280 281 281 280 279 278 278 279 279 280 281 283 284 285 285 287 289 290 298 303 312 321 322 324 324 323 322 324 322 323 322 323 324 323 323 323 323 323
279 280 280 279 278 278 278 279 279 279 279 281 283 284 285 286 290 290 293 302 306 316 321 323 323 323 321 322 323 325 323 322 323 323 323 323 323 324
278 279 278 278 278 278 278 279 278 278 279 280 281 282 283 284 288 290 291 297 299 306 313 319 320 321 322 321 322 322 322 322 322 322 322 322 323 323
277 277 277 277 278 278 278 278 278 278 278 279 280 281 282 283 285 289 289 292 296 301 306 311 318 318 319 319 321 321 321 321 321 321 323 323 322 323
276 275 277 278 277 278 278 278 278 278 278 278 278 279 280 282 284 286 288 292 293 299 301 305 311 312 315 317 318 319 319 320 319 319 320 320 320 320
275 276 277 277 276 277 277 277 277 277 277 277 278 279 279 281 282 283 285 288 291 294 296 302 306 308 308 310 313 315 315 316 316 317 318 318 319 319
274 276 276 275 275 275 275 276 276 276 276 277 277 278 279 280 281 283 284 286 287 290 295 297 300 305 306 308 308 308 309 311 312 314 314 314 315 316
274 275 274 274 274 274 274 274 275 275 275 276 277 277 278 279 280 282 283 284 285 286 289 292 297 300 302 303 304 306 305 307 308 309 310 310 311 311
274 273 273 273 273 273 273 273 274 274 275 275 276 277 277 278 279 280 281 282 283 285 287 289 291 294 297 299 299 301 303 304 306 307 307 308 308 309
273 273 272 272 272 272 272 272 273 274 274 275 275 276 276 277 278 279 280 281 283 284 285 286 287 289 291 293 295 297 298 301 301 302 303 305 306 307
272 272 271 271 272 271 272 272 272 273 273 274 274 275 275 276 277 278 279 280 282 283 284 285 285 286 288 290 293 294 296 297 299 299 300 301 302 303
271 271 271 271 271 271 271 271 271 272 272 273 273 273 274 275 277 278 279 280 281 282 283 284 285 286 287 288 290 292 293 294 295 297 298 298 299 300
270 270 270 270 270 270 270 270 271 271 272 271 272 272 273 274 276 277 278 279 280 281 282 284 285 286 287 288 289 290 291 291 293 294 294 295 296 297
Wind_Speed
25 27 28 30 30 29 29 31 34 40 43 42 45 46 48 48 41 36 46 53 63 61 56 61 60 59 60 51 52 49 47 45 43 40 39 38 39 45
25 26 29 30 29 29 29 28 33 38 47 40 52 50 48 54 52 49 40 47 46 54 63 65 62 63 63 61 64 55 51 50 48 45 42 40 40 40
26 28 31 29 28 28 29 28 32 34 40 47 47 54 56 53 55 51 51 37 52 56 57 61 67 64 63 63 63 61 55 54 53 50 47 45 42 42
30 30 28 27 27 26 26 28 32 36 40 50 47 50 56 48 50 50 54 47 46 57 53 56 60 60 58 64 72 68 65 61 56 54 51 49 47 45
30 28 28 27 28 26 28 30 34 36 38 45 51 48 54 48 46 46 50 48 46 53 55 52 51 52 56 61 66 69 76 70 64 56 55 54 52 50
27 27 27 28 27 28 32 33 35 38 40 42 46 46 44 45 45 42 47 45 52 50 54 52 49 51 52 56 58 74 72 71 67 64 59 58 56 57
28 29 28 28 25 27 32 35 37 38 39 40 44 43 42 44 44 37 39 54 46 44 49 46 49 45 42 48 51 54 58 64 73 68 61 55 60 59
31 34 30 27 28 31 32 32 31 37 34 38 41 41 41 40 42 40 39 38 43 44 50 45 53 48 44 47 51 56 57 66 66 65 69 69 64 66
31 32 32 31 31 33 35 33 31 30 29 31 37 36 40 37 40 43 41 38 43 42 46 44 51 47 46 46 45 46 46 46 53 50 57 50 59 63
29 29 30 32 31 36 38 35 33 31 31 31 30 32 33 36 36 37 39 38 50 49 46 37 45 46 44 44 40 41 40 43 48 50 50 53 55 59
28 26 28 30 36 35 36 38 36 36 36 29 25 26 25 28 27 26 21 29 32 50 43 43 44 43 39 38 37 33 36 41 43 47 51 52 51 51
29 27 27 30 36 34 33 35 38 40 39 33 28 27 27 24 19 16 14 15 24 24 44 39 36 36 28 37 34 35 35 34 35 35 33 30 40 55
32 30 32 31 34 31 28 29 33 37 33 30 27 26 28 26 22 17 13 9 15 15 29 36 33 37 27 26 39 36 35 35 36 36 36 36 37 37
30 32 30 32 32 28 27 30 30 33 32 31 31 32 34 34 30 22 17 9 6 7 13 18 28 31 22 25 34 34 33 29 30 30 31 34 36 37
28 30 28 29 28 26 26 28 29 32 34 34 34 34 31 32 31 27 19 7 13 10 8 14 21 19 18 20 23 28 26 27 26 25 25 27 27 28
32 27 27 27 25 25 27 29 29 30 32 34 33 34 32 31 30 29 28 19 11 9 8 11 11 13 11 17 19 22 20 16 20 20 21 22 20 24
29 26 26 28 30 30 31 30 31 32 33 32 33 35 34 31 30 31 29 22 22 18 12 7 6 7 4 2 3 7 9 13 12 14 16 15 17 18
24 25 27 29 30 30 31 33 32 34 35 34 31 32 31 30 28 28 27 24 21 18 15 13 6 4 5 5 6 11 9 8 11 14 17 13 16 15
22 24 26 28 29 29 30 30 32 32 32 33 33 31 32 30 28 29 26 26 25 23 21 19 13 8 8 8 3 7 9 9 11 14 16 17 17 17
21 23 26 28 28 29 30 31 31 31 32 32 31 30 30 29 29 31 29 29 26 22 18 14 13 8 4 4 3 4 3 7 8 11 13 14 16 16
23 23 25 27 28 29 30 31 30 31 30 32 31 31 30 29 30 30 29 26 23 18 15 14 13 9 4 4 2 3 3 3 8 9 10 11 12 12
22 23 25 25 27 28 29 30 31 32 33 33 32 31 30 27 27 29 27 27 25 21 18 17 15 10 6 3 3 2 5 6 6 9 10 12 10 7
22 22 24 23 24 27 28 29 30 30 31 33 33 32 31 29 27 26 24 22 22 22 19 18 14 10 8 6 4 2 6 6 6 7 8 9 10 9
Wind_Direction
316 309 305 303 304 299 292 291 293 296 291 291 289 287 288 278 270 279 277 263 239 241 243 245 241 237 238 235 240 235 233 233 232 231 231 231 230 228
312 308 309 306 304 303 298 293 290 289 288 292 291 289 289 284 277 264 269 268 242 243 238 241 238 238 236 237 234 231 232 234 233 232 232 231 232 231
315 312 309 308 305 303 304 299 294 292 290 292 292 294 291 288 286 271 263 260 249 250 247 240 239 239 237 236 231 229 234 234 233 233 233 233 233 234
317 313 308 308 305 306 305 302 299 296 296 295 296 295 293 291 291 277 259 251 251 242 245 246 239 239 235 234 233 231 234 233 234 233 233 234 234 235
317 315 312 312 309 307 305 305 303 302 298 296 295 295 295 294 297 281 265 262 257 249 244 249 242 240 239 237 236 234 231 233 234 235 232 233 234 234
324 318 315 312 309 307 304 303 305 304 304 300 296 296 293 297 299 286 274 258 262 245 242 246 252 242 236 234 237 234 232 229 233 234 236 238 236 236
324 323 318 316 311 303 304 304 303 307 307 305 300 297 294 300 302 282 280 261 264 235 235 245 234 239 235 235 237 233 234 235 228 230 231 244 242 235
323 324 325 322 316 315 311 309 306 306 306 304 299 296 296 298 302 298 271 267 263 244 238 233 236 233 232 232 235 236 245 231 233 230 235 240 244 240
322 326 326 324 323 320 322 320 316 310 305 303 301 299 296 297 299 300 275 257 253 241 226 219 229 233 234 238 236 241 229 227 218 228 228 232 235 236
325 327 323 323 322 329 326 327 322 318 317 314 308 307 300 297 293 295 276 262 251 254 214 209 223 227 232 238 234 228 221 220 223 230 232 230 232 236
328 326 324 323 318 332 331 329 328 326 325 324 321 316 308 298 292 303 275 259 254 207 205 208 216 221 225 224 230 224 220 225 229 232 234 235 236 240
330 329 323 321 326 334 332 331 330 330 332 334 332 328 322 321 306 323 338 282 259 177 183 191 200 203 211 223 227 213 217 220 225 229 231 233 236 236
329 328 323 326 332 333 333 334 333 329 334 337 339 340 339 341 339 340 359 359 292 161 181 190 190 197 201 199 210 215 219 219 223 227 230 230 230 231
330 323 329 333 331 335 335 333 337 338 342 345 349 348 349 349 351 355 352 12 342 80 139 180 179 184 185 176 191 199 201 206 213 219 224 233 230 233
328 329 340 331 335 338 337 338 344 346 347 349 352 354 352 355 353 353 349 22 55 66 104 126 156 155 159 160 170 188 194 200 209 213 219 218 226 226
334 348 336 334 340 341 343 345 349 348 353 352 350 353 356 359 2 1 359 9 9 61 45 86 133 149 138 135 141 153 176 174 183 187 202 204 216 226
343 340 339 343 346 348 347 348 349 351 354 357 355 354 359 3 4 1 2 10 13 12 29 45 77 139 159 181 187 194 198 175 159 179 192 195 201 217
344 342 343 344 346 347 347 346 349 350 353 355 358 355 356 357 1 5 4 5 7 10 29 31 43 118 177 212 228 236 236 222 215 221 227 228 233 230
346 344 343 344 345 344 346 346 346 349 351 354 355 354 355 354 3 2 2 6 10 17 26 25 30 65 95 121 191 225 222 220 225 225 226 227 231 232
347 344 342 342 344 342 343 346 347 349 351 352 352 353 353 354 0 359 1 3 9 9 12 15 21 38 72 128 163 192 213 199 218 224 223 218 225 229
344 342 342 342 342 342 342 345 347 348 350 349 350 352 352 357 358 356 357 1 2 1 1 358 353 350 312 241 246 273 242 217 219 233 233 225 222 222
340 339 340 340 340 342 342 344 346 348 349 347 349 349 351 355 355 353 353 354 354 356 354 354 358 355 349 305 171 266 265 248 233 232 234 225 219 215
336 336 337 339 339 340 343 344 344 346 345 344 345 347 349 351 351 351 351 351 351 352 352 356 2 359 348 323 229 206 265 255 229 230 225 221 209 208